"Timestamp","TZ","WindDir_Mean (deg)","WindSpd_Mean (km/h)","WindSpd_Min (km/h)","WindSpd_Max (km/h)","Temp_Mean (deg)","RH_Mean (%)","MSLP_Mean (hPa)","Rain_Acc (mm)","Rain_Intensity (mm/h)","Hail_Acc (hits/cm2)","Hail_Intensity (hits/cm2hr)","Solar_Mean (W/m2)"
2021/07/11 00:00:00.011,n,268,7.2,5.76,8.64,13.2,61.1,1019.82,0,0,0,0,0.027885
2021/07/11 00:01:00.000,n,247,9,8.28,9.72,13.2,61,1019.82,0,0,0,0,0.031357
2021/07/11 00:02:00.002,n,261,11.52,10.440002,12.24,13.2,60.9,1019.82,0,0,0,0,0.035744
2021/07/11 00:03:00.000,n,274,6.12,5.4,6.48,13.2,61.2,1019.82,0,0,0,0,0.033989
2021/07/11 00:04:00.000,n,248,11.16,10.08,12.24,13.2,61.2,1019.82,0,0,0,0,0.033989
2021/07/11 00:05:00.000,n,212,4.68,3.96,5.4,13.2,61.3,1019.82,0,0,0,0,0.032234
2021/07/11 00:06:00.005,n,243,5.76,4.68,7.2,13.2,61.5,1019.82,0,0,0,0,0.032234
2021/07/11 00:07:00.003,n,226,2.16,1.08,3.24,13.1,61.5,1019.82,0,0,0,0,0.03315
2021/07/11 00:08:00.000,n,240,7.56,6.48,8.28,13.1,61.6,1019.82,0,0,0,0,0.034866
2021/07/11 00:09:00.013,n,224,2.52,0,3.6,13.1,61.7,1019.82,0,0,0,0,0.035744
2021/07/11 00:10:00.000,n,244,3.6,3.24,3.6,13.1,61.9,1019.82,0,0,0,0,0.032234
2021/07/11 00:11:00.000,n,15,0.36,0,0.72,13,62,1019.82,0,0,0,0,0.032234
2021/07/11 00:12:00.004,n,81,0.36,0,0.72,13,62.2,1019.82,0,0,0,0,0.035744
2021/07/11 00:13:00.001,n,283,3.96,3.6,4.68,13,62.3,1019.82,0,0,0,0,0.03315
2021/07/11 00:14:00.000,n,245,5.76,4.68,6.48,12.9,62.4,1019.82,0,0,0,0,0.036583
2021/07/11 00:15:00.000,n,240,4.32,3.24,5.4,12.9,62.8,1019.82,0,0,0,0,0.03315
2021/07/11 00:16:00.011,n,316,2.88,2.16,3.6,12.9,62.7,1019.72,0,0,0,0,0.033989
2021/07/11 00:17:00.008,n,180,0.36,0,0.36,12.9,62.8,1019.72,0,0,0,0,0.037498
2021/07/11 00:18:00.005,n,261,2.52,1.8,3.24,12.9,63,1019.72,0,0,0,0,0.030518
2021/07/11 00:19:00.000,n,258,2.52,1.8,3.24,12.9,63.1,1019.72,0,0,0,0,0.031357
2021/07/11 00:20:00.000,n,243,2.88,2.52,3.24,12.8,63.1,1019.72,0,0,0,0,0.033989
2021/07/11 00:21:00.000,n,281,3.6,2.16,5.4,12.8,63.1,1019.72,0,0,0,0,0.032234
2021/07/11 00:22:00.000,n,265,5.76,5.04,7.56,12.8,63.1,1019.72,0,0,0,0,0.02964
2021/07/11 00:23:00.000,n,22,0.72,0.36,1.44,12.8,63.2,1019.72,0,0,0,0,0.024414
2021/07/11 00:24:00.008,n,251,9.36,8.28,10.08,12.7,63.1,1019.62,0,0,0,0,0.02964
2021/07/11 00:25:00.005,n,266,5.4,4.32,7.2,12.7,63.2,1019.62,0,0,0,0,0.027885
2021/07/11 00:26:00.003,n,248,2.88,0.72,3.6,12.7,63.2,1019.62,0,0,0,0,0.028763
2021/07/11 00:27:00.000,n,262,3.6,2.52,3.96,12.7,63.1,1019.62,0,0,0,0,0.030518
2021/07/11 00:28:00.000,n,264,2.16,1.44,2.88,12.7,63.2,1019.62,0,0,0,0,0.031357
2021/07/11 00:29:00.000,n,267,4.32,3.6,5.04,12.7,63.2,1019.62,0,0,0,0,0.031357
2021/07/11 00:30:00.000,n,217,3.24,2.16,5.04,12.8,63.1,1019.62,0,0,0,0,0.032234
2021/07/11 00:31:00.005,n,215,4.68,3.96,6.48,12.8,62.9,1019.52,0,0,0,0,0.034866
2021/07/11 00:32:00.003,n,320,0.72,0.36,1.08,12.8,63.2,1019.52,0,0,0,0,0.031357
2021/07/11 00:33:00.000,n,291,3.96,1.8,5.04,12.8,63,1019.52,0,0,0,0,0.02964
2021/07/11 00:34:00.000,n,248,2.16,1.08,2.88,12.8,63,1019.52,0,0,0,0,0.030518
2021/07/11 00:35:00.011,n,127,1.8,0.72,3.24,12.8,62.9,1019.52,0,0,0,0,0.02182
2021/07/11 00:36:00.008,n,121,1.08,0,3.24,12.8,62.9,1019.52,0,0,0,0,0.032234
2021/07/11 00:37:00.000,n,135,0.72,0.36,0.72,12.8,63,1019.52,0,0,0,0,0.028763
2021/07/11 00:38:00.002,n,217,2.88,2.16,3.24,12.8,63,1019.52,0,0,0,0,0.02964
2021/07/11 00:39:00.000,n,325,1.08,0.72,1.44,12.8,64.1,1019.52,0,0,0,0,0.026169
2021/07/11 00:40:00.000,n,152,4.68,1.08,9.72,12.8,63.1,1019.52,0,0,0,0,0.025291
2021/07/11 00:41:00.000,n,204,2.88,2.16,3.24,12.8,62.9,1019.52,0,0,0,0,0.026169
2021/07/11 00:42:00.007,n,180,3.96,3.24,5.4,12.9,62.8,1019.52,0,0,0,0,0.02964
2021/07/11 00:43:00.005,n,226,3.24,3.24,3.6,12.9,62.7,1019.52,0,0,0,0,0.02182
2021/07/11 00:44:00.002,n,169,1.8,1.08,2.16,12.9,62.7,1019.52,0,0,0,0,0.023537
2021/07/11 00:45:00.000,n,178,1.44,0.72,2.16,12.9,62.6,1019.52,0,0,0,0,0.027885
2021/07/11 00:46:00.000,n,162,3.6,3.24,3.96,12.9,62.9,1019.52,0,0,0,0,0.029602
2021/07/11 00:47:00.000,n,244,5.76,5.4,6.48,12.9,62.7,1019.52,0,0,0,0,0.029602
2021/07/11 00:48:00.000,n,231,1.44,1.44,1.44,12.9,62.6,1019.52,0,0,0,0,0.030479
2021/07/11 00:49:00.005,n,169,0.72,0.36,1.08,12.9,62.7,1019.52,0,0,0,0,0.030479
2021/07/11 00:50:00.002,n,139,3.6,3.24,3.6,12.9,63,1019.42,0,0,0,0,0.029602
2021/07/11 00:51:00.000,n,137,2.16,1.8,2.52,12.9,63.2,1019.42,0,0,0,0,0.027008
2021/07/11 00:52:00.000,n,171,2.88,2.52,3.24,12.9,63,1019.42,0,0,0,0,0.027885
2021/07/11 00:53:00.010,n,189,1.8,1.08,2.88,12.9,62.9,1019.42,0,0,0,0,0.031357
2021/07/11 00:54:00.008,n,258,3.6,2.88,3.96,12.9,62.9,1019.42,0,0,0,0,0.033112
2021/07/11 00:55:00.000,n,168,1.8,1.44,1.8,12.9,63.2,1019.42,0,0,0,0,0.032234
2021/07/11 00:56:00.002,n,218,1.8,1.44,1.8,12.9,63.4,1019.42,0,0,0,0,0.026131
2021/07/11 00:57:00.000,n,131,3.24,1.8,4.32,12.8,63.5,1019.42,0,0,0,0,0.024414
2021/07/11 00:58:00.000,n,207,2.52,2.16,3.24,12.8,63.6,1019.42,0,0,0,0,0.027008
2021/07/11 00:59:00.000,n,151,3.24,2.52,3.24,12.8,63.6,1019.42,0,0,0,0,0.031357
2021/07/11 01:00:00.007,n,164,2.88,2.16,3.6,12.8,63.8,1019.42,0,0,0,0,0.027008
2021/07/11 01:01:00.004,n,190,6.84,6.48,6.84,12.8,64,1019.42,0,0,0,0,0.027008
2021/07/11 01:02:00.001,n,218,1.44,1.08,1.44,12.8,64,1019.32,0,0,0,0,0.026131
2021/07/11 01:03:00.015,n,217,3.6,3.24,3.6,12.8,64.199996,1019.32,0,0,0,0,0.028763
2021/07/11 01:04:00.000,n,156,3.24,2.88,3.6,12.7,64.300004,1019.32,0,0,0,0,0.022621
2021/07/11 01:05:00.000,n,210,1.08,0.72,1.08,12.7,64.1,1019.32,0,0,0,0,0.024414
2021/07/11 01:06:00.000,n,171,3.96,3.6,4.32,12.7,64.4,1019.32,0,0,0,0,0.028763
2021/07/11 01:07:00.004,n,192,0.36,0,0.36,12.7,64.300004,1019.32,0,0,0,0,0.032234
2021/07/11 01:08:00.002,n,281,2.52,2.16,3.24,12.7,64.199996,1019.32,0,0,0,0,0.025253
2021/07/11 01:09:00.000,n,198,4.68,3.96,5.4,12.7,64.300004,1019.32,0,0,0,0,0.026131
2021/07/11 01:10:00.012,n,174,3.24,2.88,3.6,12.7,64.300004,1019.32,0,0,0,0,0.024414
2021/07/11 01:11:00.009,n,163,2.52,2.16,2.88,12.7,64.199996,1019.32,0,0,0,0,0.028763
2021/07/11 01:12:00.006,n,44,1.44,0.72,2.52,12.7,64,1019.32,0,0,0,0,0.027008
2021/07/11 01:13:00.000,n,131,3.24,2.88,4.32,12.7,64.199996,1019.32,0,0,0,0,0.028763
2021/07/11 01:14:00.000,n,142,4.32,2.88,5.04,12.7,64.300004,1019.32,0,0,0,0,0.030479
2021/07/11 01:15:00.000,n,167,5.4,5.04,5.76,12.7,64.4,1019.32,0,0,0,0,0.027008
2021/07/11 01:16:00.000,n,67,2.52,1.8,3.96,12.7,64.199996,1019.32,0,0,0,0,0.027008
2021/07/11 01:17:00.008,n,213,2.88,2.16,3.96,12.8,64,1019.32,0,0,0,0,0.022621
2021/07/11 01:18:00.005,n,128,1.08,0.36,2.16,12.8,64,1019.42,0,0,0,0,0.027885
2021/07/11 01:19:00.002,n,130,5.04,4.32,5.76,12.8,64.199996,1019.42,0,0,0,0,0.027008
2021/07/11 01:20:00.000,n,166,3.24,2.52,3.6,12.8,64.300004,1019.42,0,0,0,0,0.024414
2021/07/11 01:21:00.013,n,131,2.16,1.44,2.88,12.7,64.4,1019.42,0,0,0,0,0.026131
2021/07/11 01:22:00.000,n,134,4.68,3.96,5.04,12.7,64.5,1019.42,0,0,0,0,0.027885
2021/07/11 01:23:00.000,n,184,4.68,3.96,5.04,12.7,64.6,1019.42,0,0,0,0,0.024414
2021/07/11 01:24:00.004,n,157,8.28,7.56,8.64,12.6,64.9,1019.42,0,0,0,0,0.022621
2021/07/11 01:25:00.002,n,155,3.6,1.44,5.04,12.6,64.800004,1019.42,0,0,0,0,0.023537
2021/07/11 01:26:00.000,n,172,2.52,2.16,3.24,12.6,64.9,1019.42,0,0,0,0,0.018272
2021/07/11 01:27:00.000,n,260,1.44,1.08,2.52,12.6,65.1,1019.52,0,0,0,0,0.021782
2021/07/11 01:28:00.009,n,178,5.4,5.04,5.76,12.5,65.199996,1019.42,0,0,0,0,0.021782
2021/07/11 01:29:00.006,n,181,5.4,4.68,6.12,12.5,65.300004,1019.42,0,0,0,0,0.032234
2021/07/11 01:30:00.015,n,190,6.12,5.76,6.48,12.5,65.199996,1019.42,0,0,0,0,0.033989
2021/07/11 01:31:00.000,n,195,3.24,2.88,3.6,12.5,65.199996,1019.42,0,0,0,0,0.034866
2021/07/11 01:32:00.000,n,137,2.88,0.36,5.04,12.5,65.300004,1019.42,0,0,0,0,0.034866
2021/07/11 01:33:00.000,n,177,7.92,6.84,8.28,12.5,65.300004,1019.42,0,0,0,0,0.029602
2021/07/11 01:34:00.004,n,188,6.84,6.48,7.56,12.5,65.300004,1019.42,0,0,0,0,0.027885
2021/07/11 01:35:00.001,n,154,5.76,3.96,7.2,12.5,65.4,1019.32,0,0,0,0,0.027885
2021/07/11 01:36:00.000,n,176,5.04,4.32,6.12,12.5,65.5,1019.32,0,0,0,0,0.029602
2021/07/11 01:37:00.012,n,165,6.12,5.04,6.48,12.5,65.6,1019.32,0,0,0,0,0.033112
2021/07/11 01:38:00.009,n,216,1.8,1.44,2.16,12.4,65.6,1019.32,0,0,0,0,0.034866
2021/07/11 01:39:00.005,n,130,2.16,1.08,2.88,12.4,65.699996,1019.22,0,0,0,0,0.033989
2021/07/11 01:40:00.000,n,265,3.96,3.24,5.04,12.4,65.699996,1019.22,0,0,0,0,0.027008
2021/07/11 01:41:00.000,n,221,1.44,0.72,2.16,12.4,65.800004,1019.22,0,0,0,0,0.029602
2021/07/11 01:42:00.000,n,207,3.6,2.52,4.68,12.4,65.800004,1019.22,0,0,0,0,0.030479
2021/07/11 01:43:00.000,n,154,1.8,1.08,2.16,12.4,65.9,1019.22,0,0,0,0,0.029602
2021/07/11 01:44:00.008,n,224,0.36,0.36,0.72,12.3,66,1019.22,0,0,0,0,0.032234
2021/07/11 01:45:00.005,n,81,0.72,0.36,1.8,12.3,66.4,1019.22,0,0,0,0,0.036583
2021/07/11 01:46:00.002,n,206,3.6,2.88,4.68,12.3,66.199996,1019.22,0,0,0,0,0.033112
2021/07/11 01:47:00.000,n,248,2.16,1.8,2.52,12.3,66,1019.22,0,0,0,0,0.030479
2021/07/11 01:48:00.012,n,240,0.72,0.72,1.08,12.3,66.1,1019.22,0,0,0,0,0.025253
2021/07/11 01:49:00.000,n,239,1.8,1.08,3.24,12.3,66.1,1019.22,0,0,0,0,0.027008
2021/07/11 01:50:00.000,n,89,0.72,0.36,1.08,12.3,66.1,1019.22,0,0,0,0,0.029602
2021/07/11 01:51:00.004,n,126,1.44,0.72,3.24,12.3,66.300004,1019.22,0,0,0,0,0.030479
2021/07/11 01:52:00.001,n,243,2.52,1.44,2.88,12.3,66.4,1019.22,0,0,0,0,0.026131
2021/07/11 01:53:00.000,n,176,5.76,5.4,7.2,12.2,66.5,1019.22,0,0,0,0,0.033112
2021/07/11 01:54:00.000,n,209,2.52,1.8,2.88,12.2,66.6,1019.22,0,0,0,0,0.033989
2021/07/11 01:55:00.008,n,272,2.88,2.88,3.24,12.2,67.1,1019.22,0,0,0,0,0.026131
2021/07/11 01:56:00.006,n,112,3.6,3.24,4.32,12.2,66.800004,1019.12,0,0,0,0,0.029602
2021/07/11 01:57:00.003,n,304,1.08,0.72,1.44,12.2,66.699996,1019.12,0,0,0,0,0.031395
2021/07/11 01:58:00.001,n,260,6.48,6.12,7.2,12.2,66.5,1019.12,0,0,0,0,0.030479
2021/07/11 01:59:00.000,n,252,3.24,2.88,3.6,12.2,66.6,1019.12,0,0,0,0,0.025253
2021/07/11 02:00:00.000,n,214,3.24,2.16,3.96,12.2,66.5,1019.12,0,0,0,0,0.031395
2021/07/11 02:01:00.000,n,270,5.04,4.32,5.04,12.2,66.5,1019.12,0,0,0,0,0.023537
2021/07/11 02:02:00.005,n,212,6.48,4.32,8.64,12.2,66.4,1019.12,0,0,0,0,0.030479
2021/07/11 02:03:00.003,n,277,3.96,3.6,5.04,12.2,66.699996,1019.12,0,0,0,0,0.027885
2021/07/11 02:04:00.000,n,279,2.88,2.16,3.24,12.2,66.4,1019.12,0,0,0,0,0.031395
2021/07/11 02:05:00.012,n,191,3.24,2.16,3.96,12.2,66.300004,1019.12,0,0,0,0,0.027008
2021/07/11 02:06:00.010,n,263,1.08,0.36,1.44,12.2,66.300004,1019.12,0,0,0,0,0.023537
2021/07/11 02:07:00.000,n,263,0.36,0.36,0.72,12.2,66.4,1019.12,0,0,0,0,0.026131
2021/07/11 02:08:00.000,n,180,1.44,1.08,2.16,12.1,66.6,1019.12,0,0,0,0,0.028763
2021/07/11 02:09:00.000,n,123,1.8,1.8,2.16,12.1,66.800004,1019.12,0,0,0,0,0.025253
2021/07/11 02:10:00.000,n,319,1.44,1.08,1.44,12.1,66.800004,1019.12,0,0,0,0,0.026131
2021/07/11 02:11:00.000,n,244,2.52,1.8,3.24,12.1,66.9,1019.12,0,0,0,0,0.032234
2021/07/11 02:12:00.008,n,280,3.96,3.6,4.68,12.1,66.9,1019.02,0,0,0,0,0.025253
2021/07/11 02:13:00.005,n,246,4.68,4.68,5.4,12.1,66.699996,1019.02,0,0,0,0,0.025253
2021/07/11 02:14:00.002,n,230,4.32,3.6,4.68,12.1,66.699996,1019.02,0,0,0,0,0.026131
2021/07/11 02:15:00.016,n,205,1.8,1.08,2.16,12.1,66.699996,1019.02,0,0,0,0,0.021782
2021/07/11 02:16:00.000,n,269,7.92,7.2,8.28,12.1,66.699996,1019.02,0,0,0,0,0.020905
2021/07/11 02:17:00.000,n,234,2.52,1.44,3.24,12.1,66.6,1019.02,0,0,0,0,0.024414
2021/07/11 02:18:00.000,n,239,4.32,2.88,5.76,12.1,66.6,1019.12,0,0,0,0,0.021782
2021/07/11 02:19:00.005,n,169,3.24,2.88,3.6,12.1,66.699996,1019.02,0,0,0,0,0.028763
2021/07/11 02:20:00.002,n,229,2.16,1.44,2.16,12.1,66.6,1019.12,0,0,0,0,0.026131
2021/07/11 02:21:00.001,n,254,2.52,2.16,2.88,12.1,66.6,1019.12,0,0,0,0,0.021782
2021/07/11 02:22:00.000,n,213,1.44,0.72,1.8,12.1,66.6,1019.12,0,0,0,0,0.026131
2021/07/11 02:23:00.012,n,315,1.8,1.44,2.52,12.1,67.3,1019.12,0,0,0,0,0.024414
2021/07/11 02:24:00.009,n,150,3.24,2.16,3.96,12.1,67,1019.12,0,0,0,0,0.018272
2021/07/11 02:25:00.000,n,156,1.8,1.44,1.8,12.1,66.800004,1019.12,0,0,0,0,0.028725
2021/07/11 02:26:00.002,n,221,1.8,1.44,1.8,12.1,66.800004,1019.12,0,0,0,0,0.026093
2021/07/11 02:27:00.000,n,147,2.52,2.16,3.24,12.1,67,1019.12,0,0,0,0,0.028725
2021/07/11 02:28:00.000,n,235,1.8,1.08,2.16,12.1,66.9,1019.12,0,0,0,0,0.031319
2021/07/11 02:29:00.000,n,160,2.88,2.52,3.24,12.1,67.1,1019.12,0,0,0,0,0.02697
2021/07/11 02:30:00.006,n,149,1.8,1.44,2.16,12.1,67.4,1019.12,0,0,0,0,0.028725
2021/07/11 02:31:00.004,n,214,1.44,1.08,1.44,12,67.4,1019.12,0,0,0,0,0.035667
2021/07/11 02:32:00.001,n,284,2.16,1.08,3.24,12,67.3,1019.12,0,0,0,0,0.033951
2021/07/11 02:33:00.014,n,261,1.08,0.36,1.8,12,67.2,1019.12,0,0,0,0,0.027847
2021/07/11 02:34:00.000,n,166,2.52,2.16,2.88,12,67.7,1019.12,0,0,0,0,0.032234
2021/07/11 02:35:00.000,n,143,1.08,0.72,1.8,12,67.8,1019.22,0,0,0,0,0.032234
2021/07/11 02:36:00.000,n,199,1.8,0.72,2.52,12,67.6,1019.22,0,0,0,0,0.033073
2021/07/11 02:37:00.004,n,185,2.88,2.16,3.24,12,67.6,1019.22,0,0,0,0,0.029602
2021/07/11 02:38:00.002,n,169,3.6,3.24,3.96,12,67.9,1019.22,0,0,0,0,0.023499
2021/07/11 02:39:00.000,n,200,2.16,1.8,2.52,12,68.1,1019.22,0,0,0,0,0.032234
2021/07/11 02:40:00.000,n,160,3.96,3.6,4.32,12,68,1019.22,0,0,0,0,0.032234
2021/07/11 02:41:00.010,n,148,2.16,1.8,2.52,11.9,68.3,1019.22,0,0,0,0,0.02697
2021/07/11 02:42:00.007,n,166,3.24,2.52,4.32,11.9,68.5,1019.22,0,0,0,0,0.033951
2021/07/11 02:43:00.000,n,188,3.24,3.24,3.6,11.9,68.5,1019.22,0,0,0,0,0.030441
2021/07/11 02:44:00.001,n,111,2.16,0.36,4.68,11.9,68.6,1019.22,0,0,0,0,0.031319
2021/07/11 02:45:00.000,n,209,1.8,1.44,1.8,11.9,68.6,1019.22,0,0,0,0,0.023499
2021/07/11 02:46:00.000,n,245,1.44,1.44,2.16,11.8,68.7,1019.22,0,0,0,0,0.029602
2021/07/11 02:47:00.000,n,262,5.04,3.96,5.4,11.8,68.7,1019.22,0,0,0,0,0.025253
2021/07/11 02:48:00.007,n,212,1.44,1.08,2.16,11.8,68.5,1019.22,0,0,0,0,0.02697
2021/07/11 02:49:00.005,n,196,3.24,2.52,4.32,11.8,68.7,1019.22,0,0,0,0,0.02697
2021/07/11 02:50:00.002,n,156,4.68,3.96,5.4,11.8,68.7,1019.22,0,0,0,0,0.032234
2021/07/11 02:51:00.015,n,143,4.32,3.24,5.04,11.8,68.5,1019.22,0,0,0,0,0.032234
2021/07/11 02:52:00.000,n,324,0.72,0.36,0.72,11.8,68.4,1019.22,0,0,0,0,0.029602
2021/07/11 02:53:00.000,n,223,1.8,1.44,2.88,11.8,68.5,1019.22,0,0,0,0,0.028725
2021/07/11 02:54:00.000,n,260,2.52,2.16,2.88,11.8,68.8,1019.22,0,0,0,0,0.025253
2021/07/11 02:55:00.004,n,154,2.52,1.8,3.24,11.8,68.7,1019.22,0,0,0,0,0.030441
2021/07/11 02:56:00.001,n,165,4.32,3.96,4.68,11.8,68.7,1019.22,0,0,0,0,0.025253
2021/07/11 02:57:00.000,n,139,5.04,4.68,5.4,11.8,68.9,1019.32,0,0,0,0,0.026093
2021/07/11 02:58:00.012,n,187,1.8,1.44,1.8,11.8,69.1,1019.32,0,0,0,0,0.025253
2021/07/11 02:59:00.009,n,242,1.08,0.72,1.44,11.7,69.2,1019.32,0,0,0,0,0.025253
2021/07/11 03:00:00.007,n,220,0.36,0,0.36,11.7,69.4,1019.32,0,0,0,0,0.026093
2021/07/11 03:01:00.000,n,267,3.6,3.24,3.96,11.7,69.3,1019.22,0,0,0,0,0.032234
2021/07/11 03:02:00.000,n,265,5.04,3.96,5.76,11.7,69.3,1019.22,0,0,0,0,0.029602
2021/07/11 03:03:00.000,n,161,0.72,0.36,0.72,11.7,69.2,1019.22,0,0,0,0,0.027847
2021/07/11 03:04:00.000,n,195,3.24,1.8,3.96,11.7,69.3,1019.32,0,0,0,0,0.024376
2021/07/11 03:05:00.000,n,178,2.88,2.52,3.24,11.7,69.3,1019.32,0,0,0,0,0.02697
2021/07/11 03:06:00.006,n,156,2.52,2.16,2.88,11.7,69.3,1019.32,0,0,0,0,0.025253
2021/07/11 03:07:00.005,n,145,3.24,3.24,3.24,11.7,69.4,1019.32,0,0,0,0,0.027847
2021/07/11 03:08:00.002,n,134,1.8,1.44,2.16,11.7,69.3,1019.32,0,0,0,0,0.028725
2021/07/11 03:09:00.016,n,281,2.52,2.16,3.24,11.7,69.6,1019.22,0,0,0,0,0.023499
2021/07/11 03:10:00.000,n,147,0.72,0.36,0.72,11.7,69.4,1019.32,0,0,0,0,0.026093
2021/07/11 03:11:00.000,n,158,5.04,4.68,5.76,11.7,69.5,1019.32,0,0,0,0,0.02697
2021/07/11 03:12:00.000,n,155,3.96,2.52,5.04,11.7,69.5,1019.32,0,0,0,0,0.026093
2021/07/11 03:13:00.006,n,232,3.24,2.88,3.6,11.7,69.5,1019.32,0,0,0,0,0.021744
2021/07/11 03:14:00.003,n,195,3.24,2.88,3.6,11.7,69.5,1019.32,0,0,0,0,0.027847
2021/07/11 03:15:00.000,n,253,1.44,1.08,1.8,11.7,69.5,1019.32,0,0,0,0,0.02697
2021/07/11 03:16:00.000,n,192,1.8,1.08,2.16,11.6,69.5,1019.32,0,0,0,0,0.021744
2021/07/11 03:17:00.011,n,94,0.36,0.36,0.72,11.6,69.4,1019.32,0,0,0,0,0.022621
2021/07/11 03:18:00.009,n,269,3.6,3.6,3.96,11.6,69.3,1019.32,0,0,0,0,0.018272
2021/07/11 03:19:00.000,n,261,6.12,5.04,7.2,11.6,69.3,1019.32,0,0,0,0,0.025253
2021/07/11 03:20:00.002,n,320,3.6,2.88,4.68,11.6,69.1,1019.32,0,0,0,0,0.022621
2021/07/11 03:21:00.000,n,264,7.92,6.48,8.64,11.6,69,1019.32,0,0,0,0,0.02697
2021/07/11 03:22:00.000,n,263,2.88,2.52,3.24,11.6,68.8,1019.32,0,0,0,0,0.025253
2021/07/11 03:23:00.000,n,264,8.28,2.52,10.08,11.7,68.5,1019.32,0,0,0,0,0.020027
2021/07/11 03:24:00.007,n,230,3.24,2.52,3.96,11.7,68.3,1019.32,0,0,0,0,0.020905
2021/07/11 03:25:00.005,n,200,1.8,1.08,2.16,11.7,68.4,1019.32,0,0,0,0,0.020027
2021/07/11 03:26:00.002,n,289,0.72,0.36,0.72,11.7,68.5,1019.32,0,0,0,0,0.023499
2021/07/11 03:27:00.015,n,173,1.8,1.44,2.16,11.7,68.5,1019.32,0,0,0,0,0.025253
2021/07/11 03:28:00.000,n,171,3.24,1.8,4.32,11.7,68.5,1019.42,0,0,0,0,0.024376
2021/07/11 03:29:00.000,n,190,2.88,2.52,3.6,11.7,68.7,1019.42,0,0,0,0,0.022621
2021/07/11 03:30:00.000,n,140,3.24,2.88,3.6,11.7,68.7,1019.42,0,0,0,0,0.02697
2021/07/11 03:31:00.004,n,169,2.88,2.88,3.24,11.7,68.9,1019.42,0,0,0,0,0.022621
2021/07/11 03:32:00.002,n,121,3.6,2.88,4.32,11.7,69.1,1019.42,0,0,0,0,0.021744
2021/07/11 03:33:00.000,n,188,4.32,3.6,5.04,11.7,69.4,1019.52,0,0,0,0,0.020905
2021/07/11 03:34:00.012,n,197,5.4,4.68,6.48,11.6,69.3,1019.52,0,0,0,0,0.020905
2021/07/11 03:35:00.009,n,235,5.4,4.32,6.12,11.6,69.2,1019.42,0,0,0,0,0.025253
2021/07/11 03:36:00.006,n,165,1.8,1.8,2.16,11.6,69.1,1019.42,0,0,0,0,0.020027
2021/07/11 03:37:00.000,n,193,2.88,2.52,3.6,11.6,69.1,1019.42,0,0,0,0,0.020027
2021/07/11 03:38:00.001,n,320,0.72,0.36,1.08,11.6,68.9,1019.42,0,0,0,0,0.024376
2021/07/11 03:39:00.000,n,230,3.96,2.88,5.04,11.6,68.9,1019.42,0,0,0,0,0.023499
2021/07/11 03:40:00.000,n,230,3.96,2.88,5.04,11.6,69,1019.42,0,0,0,0,0.020905
2021/07/11 03:41:00.000,n,176,3.24,2.88,3.6,11.7,69,1019.42,0,0,0,0,0.020027
2021/07/11 03:42:00.006,n,284,1.44,0.72,1.8,11.7,68.6,1019.32,0,0,0,0,0.020905
2021/07/11 03:43:00.003,n,223,2.88,2.52,3.24,11.7,68.7,1019.32,0,0,0,0,0.018272
2021/07/11 03:44:00.000,n,239,3.24,2.88,3.96,11.7,68.5,1019.42,0,0,0,0,0.016518
2021/07/11 03:45:00.014,n,204,1.44,1.08,1.8,11.7,68.5,1019.42,0,0,0,0,0.025253
2021/07/11 03:46:00.000,n,161,4.32,3.24,5.4,11.7,68.7,1019.42,0,0,0,0,0.020027
2021/07/11 03:47:00.000,n,149,5.4,5.04,5.76,11.7,68.6,1019.42,0,0,0,0,0.021744
2021/07/11 03:48:00.000,n,153,3.6,2.88,4.32,11.7,69.1,1019.42,0,0,0,0,0.018272
2021/07/11 03:49:00.002,n,163,2.88,2.52,3.24,11.6,69.5,1019.42,0,0,0,0,0.01564
2021/07/11 03:50:00.000,n,158,1.8,1.44,2.52,11.5,69.8,1019.42,0,0,0,0,0.019112
2021/07/11 03:51:00.000,n,230,1.8,1.8,1.8,11.5,70,1019.32,0,0,0,0,0.01564
2021/07/11 03:52:00.009,n,274,1.8,1.44,2.16,11.4,70,1019.32,0,0,0,0,0.022621
2021/07/11 03:53:00.007,n,222,0.72,0.36,1.08,11.4,69.7,1019.32,0,0,0,0,0.018272
2021/07/11 03:54:00.004,n,243,2.52,1.08,3.6,11.4,69.8,1019.32,0,0,0,0,0.030441
2021/07/11 03:55:00.000,n,230,2.52,1.8,2.52,11.4,69.7,1019.42,0,0,0,0,0.03479
2021/07/11 03:56:00.000,n,164,2.52,2.16,2.88,11.4,69.6,1019.42,0,0,0,0,0.031319
2021/07/11 03:57:00.000,n,173,1.8,0.72,3.6,11.4,69.6,1019.42,0,0,0,0,0.037422
2021/07/11 03:58:00.005,n,187,3.96,3.6,5.04,11.5,69,1019.42,0,0,0,0,0.036583
2021/07/11 03:59:00.003,n,246,3.6,3.24,3.96,11.5,68.8,1019.42,0,0,0,0,0.033951
2021/07/11 04:00:00.000,n,278,5.76,5.04,6.48,11.6,68.4,1019.42,0,0,0,0,0.030441
2021/07/11 04:01:00.000,n,261,4.68,4.32,5.04,11.6,68.2,1019.42,0,0,0,0,0.036583
2021/07/11 04:02:00.009,n,138,1.08,0.72,1.44,11.6,68.2,1019.42,0,0,0,0,0.030441
2021/07/11 04:03:00.006,n,244,1.8,1.08,2.52,11.7,67.8,1019.42,0,0,0,0,0.028725
2021/07/11 04:04:00.000,n,250,2.52,2.16,2.88,11.7,67.8,1019.42,0,0,0,0,0.033951
2021/07/11 04:05:00.000,n,110,0.72,0.36,1.08,11.7,67.8,1019.42,0,0,0,0,0.032234
2021/07/11 04:06:00.000,n,168,2.52,1.8,2.88,11.7,67.6,1019.42,0,0,0,0,0.037422
2021/07/11 04:07:00.000,n,155,5.04,4.68,6.12,11.7,67.6,1019.42,0,0,0,0,0.033073
2021/07/11 04:08:00.000,n,177,3.6,3.6,3.96,11.7,68.1,1019.42,0,0,0,0,0.031319
2021/07/11 04:09:00.006,n,196,1.8,1.44,2.52,11.7,68.5,1019.42,0,0,0,0,0.035706
2021/07/11 04:10:00.005,n,168,5.04,4.32,6.12,11.7,68.9,1019.42,0,0,0,0,0.030441
2021/07/11 04:11:00.001,n,183,3.6,2.88,3.96,11.6,69.3,1019.42,0,0,0,0,0.02697
2021/07/11 04:12:00.015,n,282,5.04,3.96,5.76,11.6,68.7,1019.42,0,0,0,0,0.033951
2021/07/11 04:13:00.000,n,207,2.52,1.8,3.6,11.6,68.3,1019.42,0,0,0,0,0.033951
2021/07/11 04:14:00.000,n,115,0.72,0.36,1.08,11.6,68.4,1019.42,0,0,0,0,0.033073
2021/07/11 04:15:00.000,n,153,6.48,5.76,6.84,11.6,68.6,1019.42,0,0,0,0,0.032234
2021/07/11 04:16:00.004,n,159,3.96,3.6,4.32,11.6,69.1,1019.42,0,0,0,0,0.032234
2021/07/11 04:17:00.001,n,167,0.72,0.36,1.8,11.6,69.6,1019.32,0,0,0,0,0.035706
2021/07/11 04:18:00.000,n,195,3.96,2.88,5.4,11.6,69.2,1019.32,0,0,0,0,0.031319
2021/07/11 04:19:00.012,n,193,1.8,1.44,1.8,11.6,69.4,1019.32,0,0,0,0,0.028725
2021/07/11 04:20:00.009,n,235,2.88,2.16,3.24,11.6,69.3,1019.42,0,0,0,0,0.035706
2021/07/11 04:21:00.006,n,278,2.52,2.16,2.88,11.6,69.1,1019.42,0,0,0,0,0.035706
2021/07/11 04:22:00.000,n,257,4.68,4.32,5.04,11.5,68.6,1019.42,0,0,0,0,0.032234
2021/07/11 04:23:00.002,n,149,2.16,1.8,2.52,11.6,68.8,1019.42,0,0,0,0,0.031319
2021/07/11 04:24:00.000,n,190,3.24,2.52,3.6,11.6,68.8,1019.52,0,0,0,0,0.03479
2021/07/11 04:25:00.000,n,173,3.24,0.72,4.32,11.6,68.5,1019.52,0,0,0,0,0.033951
2021/07/11 04:26:00.000,n,192,3.96,3.6,4.32,11.7,68.2,1019.52,0,0,0,0,0.028725
2021/07/11 04:27:00.008,n,200,5.4,4.68,5.76,11.7,67.9,1019.52,0,0,0,0,0.030441
2021/07/11 04:28:00.005,n,237,1.44,1.44,1.8,11.7,68,1019.52,0,0,0,0,0.03479
2021/07/11 04:29:00.002,n,294,2.88,1.8,3.96,11.8,69.8,1019.52,0,0,0,0,0.029602
2021/07/11 04:30:00.015,n,250,1.8,1.44,2.52,11.8,68.3,1019.52,0,0,0,0,0.029602
2021/07/11 04:31:00.000,n,263,2.16,1.8,2.88,11.8,67.5,1019.52,0,0,0,0,0.031319
2021/07/11 04:32:00.000,n,217,0.72,0,1.08,11.7,67.6,1019.52,0,0,0,0,0.033073
2021/07/11 04:33:00.000,n,210,2.16,1.44,2.52,11.7,67,1019.52,0,0,0,0,0.036583
2021/07/11 04:34:00.005,n,265,5.4,3.24,6.48,11.7,66.9,1019.62,0,0,0,0,0.031319
2021/07/11 04:35:00.002,n,229,0.72,0,1.8,11.8,67.3,1019.62,0,0,0,0,0.035706
2021/07/11 04:36:00.000,n,210,3.6,2.88,4.32,11.8,67,1019.62,0,0,0,0,0.028725
2021/07/11 04:37:00.012,n,184,3.24,3.24,3.6,11.8,66.9,1019.62,0,0,0,0,0.031319
2021/07/11 04:38:00.009,n,247,3.24,2.52,4.32,11.8,66.699996,1019.62,0,0,0,0,0.028725
2021/07/11 04:39:00.007,n,193,3.96,2.16,5.4,11.8,66.699996,1019.62,0,0,0,0,0.033073
2021/07/11 04:40:00.000,n,293,2.88,2.52,3.96,11.8,66.800004,1019.62,0,0,0,0,0.029602
2021/07/11 04:41:00.000,n,244,2.52,1.8,2.88,11.9,67,1019.62,0,0,0,0,0.033951
2021/07/11 04:42:00.000,n,181,2.88,2.52,2.88,11.9,66.6,1019.62,0,0,0,0,0.033951
2021/07/11 04:43:00.000,n,155,2.88,1.8,4.68,11.9,66.699996,1019.72,0,0,0,0,0.0383
2021/07/11 04:44:00.008,n,145,4.68,3.96,5.76,11.9,66.800004,1019.62,0,0,0,0,0.033073
2021/07/11 04:45:00.006,n,141,2.52,2.52,2.88,11.8,67,1019.62,0,0,0,0,0.0383
2021/07/11 04:46:00.002,n,175,4.68,4.32,5.04,11.8,67.3,1019.62,0,0,0,0,0.03479
2021/07/11 04:47:00.000,n,179,3.24,2.52,4.32,11.8,67.4,1019.62,0,0,0,0,0.033073
2021/07/11 04:48:00.013,n,293,4.68,4.32,5.4,11.8,67.5,1019.62,0,0,0,0,0.02697
2021/07/11 04:49:00.000,n,287,3.24,2.52,3.96,11.7,67.6,1019.62,0,0,0,0,0.031319
2021/07/11 04:50:00.000,n,255,3.24,2.52,3.96,11.7,67.5,1019.62,0,0,0,0,0.036583
2021/07/11 04:51:00.005,n,195,2.52,1.8,2.88,11.7,67.4,1019.62,0,0,0,0,0.035706
2021/07/11 04:52:00.002,n,171,5.04,3.24,6.12,11.7,67.5,1019.62,0,0,0,0,0.035706
2021/07/11 04:53:00.000,n,204,2.88,2.88,3.6,11.7,67.9,1019.62,0,0,0,0,0.030441